Weather History for Abingdon, VA

Change the Weather History Date:

Saturday, May 10, 2014

  Actual Average (KTRI) Record (KTRI)
Temperature  
Mean Temperature 65 °F 62 °F  
Max Temperature 72 °F 74 °F 85 °F (1955)
Min Temperature 58 °F 49 °F 32 °F (1966)
Degree Days  
Heating Degree Days 0 4  
Month to date heating degree days 52  
Since 1 July heating degree days 4306  
Cooling Degree Days 0 1  
Month to date cooling degree days 10  
Year to date cooling degree days 21  
Growing Degree Days 15 (Base 50)    
Moisture  
Dew Point 60 °F    
Average Humidity 86    
Maximum Humidity 97    
Minimum Humidity 59    
Precipitation  
Precipitation 0.21 in 0.11 in 1.13 in (2011)
Month to date precipitation 1.17  
Year to date precipitation 14.76  
Snow  
Snow 0.00 in 0.00 in - ()
Month to date snowfall 0.0  
Since 1 July snowfall 13.3  
Snow Depth -    
Sea Level Pressure  
Sea Level Pressure 30.11 in    
Wind  
Wind Speed 2 mph (West)    
Max Wind Speed 10 mph    
Max Gust Speed 17 mph    
Visibility 9 miles    
Events Rain    
T = Trace of Precipitation, MM = Missing Value Source: NWS Daily Summary

Daily Weather History Graph

Daily Weather History Graph

Search for Another Location

Airport:

Trip Planner

Search our weather history database for the weather conditions in past years. The results will help you decide how hot, cold, wet, or windy it might be!

Date:

Astronomy

May. 10, 2014 Rise Set
Actual Time 6:25 AM EDT 8:24 PM EDT
Civil Twilight 5:56 AM EDT 8:52 PM EDT
Nautical Twilight 5:22 AM EDT 9:27 PM EDT
Astronomical Twilight 4:45 AM EDT 10:04 PM EDT
Moon 4:25 PM EDT (5/10) 3:50 AM EDT (5/10)
Length of Visible Light 14h 56m
Length of Day
13h 59m
Waxing Gibbous, 82% of the Moon is Illuminated
May 10
Waxing Gibbous
May 14
Full
May 21
Last Quarter
May 28
New
Jun 5
First Quarter

Hourly Weather History & Observations

Time (EDT) Temp. Dew Point Humidity Pressure Visibility Wind Dir Wind Speed Gust Speed Precip Events Conditions
12:15 AM 65.3 °F 57.4 °F 76% 30.13 in 10.0 mi Calm Calm - N/A   Scattered Clouds
12:35 AM 64.6 °F 57.6 °F 78% 30.14 in 10.0 mi Calm Calm - N/A   Scattered Clouds
12:55 AM 63.7 °F 57.7 °F 81% 30.14 in 10.0 mi Calm Calm - N/A   Clear
1:15 AM 62.8 °F 57.6 °F 83% 30.13 in 10.0 mi Calm Calm - N/A   Clear
1:35 AM 61.0 °F 57.6 °F 88% 30.12 in 10.0 mi Calm Calm - N/A   Clear
1:55 AM 61.0 °F 57.4 °F 88% 30.13 in 10.0 mi North 3.5 mph - N/A   Clear
2:15 AM 61.0 °F 57.0 °F 87% 30.11 in 10.0 mi Calm Calm - N/A   Clear
2:35 AM 60.1 °F 57.4 °F 91% 30.10 in 10.0 mi Calm Calm - N/A   Clear
2:55 AM 59.4 °F 57.2 °F 93% 30.10 in 10.0 mi Calm Calm - N/A   Clear
3:15 AM 59.5 °F 57.4 °F 93% 30.09 in 10.0 mi Calm Calm - N/A   Clear
3:35 AM 59.0 °F 57.0 °F 93% 30.09 in 10.0 mi Calm Calm - N/A   Clear
3:55 AM 58.1 °F 56.5 °F 94% 30.09 in 10.0 mi Calm Calm - N/A   Clear
4:15 AM 58.3 °F 56.8 °F 95% 30.11 in 10.0 mi Calm Calm - N/A   Clear
4:35 AM 58.3 °F 57.2 °F 96% 30.11 in 10.0 mi Calm Calm - N/A   Scattered Clouds
4:55 AM 58.5 °F 57.4 °F 96% 30.11 in 10.0 mi Calm Calm - N/A   Mostly Cloudy
5:15 AM 59.4 °F 57.6 °F 94% 30.11 in 10.0 mi Calm Calm - N/A   Overcast
5:35 AM 59.5 °F 57.7 °F 94% 30.11 in 10.0 mi Calm Calm - N/A   Overcast
5:55 AM 59.5 °F 57.7 °F 94% 30.10 in 10.0 mi Calm Calm - N/A   Overcast
6:15 AM 59.2 °F 57.4 °F 94% 30.11 in 10.0 mi Calm Calm - N/A   Overcast
6:35 AM 59.9 °F 58.1 °F 94% 30.11 in 10.0 mi Calm Calm - N/A   Mostly Cloudy
6:55 AM 59.9 °F 57.7 °F 93% 30.11 in 10.0 mi Calm Calm - N/A   Mostly Cloudy
7:15 AM 60.3 °F 58.1 °F 93% 30.11 in 10.0 mi Calm Calm - N/A   Overcast
7:35 AM 60.4 °F 58.3 °F 93% 30.12 in 10.0 mi Calm Calm - N/A   Overcast
7:55 AM 61.7 °F 59.4 °F 92% 30.12 in 10.0 mi Calm Calm - N/A   Overcast
8:15 AM 62.8 °F 60.3 °F 91% 30.12 in 10.0 mi Calm Calm - N/A   Mostly Cloudy
8:35 AM 63.7 °F 60.6 °F 90% 30.12 in 10.0 mi Calm Calm - N/A   Overcast
8:55 AM 64.6 °F 61.0 °F 88% 30.13 in 10.0 mi Calm Calm - N/A   Mostly Cloudy
9:15 AM 65.1 °F 61.0 °F 86% 30.13 in 5.0 mi Calm Calm - N/A   Mostly Cloudy
9:35 AM 65.7 °F 60.4 °F 83% 30.14 in 5.0 mi South 5.8 mph - 0.02 in Rain Heavy Rain
9:55 AM 64.0 °F 60.8 °F 89% 30.14 in 7.0 mi Calm Calm - 0.04 in Rain Rain
10:15 AM 64.2 °F 61.3 °F 90% 30.13 in 7.0 mi Calm Calm - 0.01 in Rain Light Rain
10:35 AM 64.0 °F 61.7 °F 92% 30.14 in 10.0 mi North 3.5 mph - 0.02 in Rain Light Rain
10:55 AM 64.8 °F 61.7 °F 90% 30.13 in 10.0 mi Calm Calm - 0.02 in Rain Light Rain
11:15 AM 65.8 °F 61.7 °F 86% 30.13 in 10.0 mi Calm Calm - N/A   Mostly Cloudy
11:35 AM 66.2 °F 61.9 °F 86% 30.13 in 10.0 mi Calm Calm - N/A   Mostly Cloudy
11:55 AM 66.4 °F 62.1 °F 86% 30.15 in 10.0 mi West 5.8 mph - N/A   Light Drizzle
12:15 PM 66.7 °F 63.0 °F 88% 30.15 in 7.0 mi West 6.9 mph - N/A Rain Light Rain
12:35 PM 66.4 °F 62.8 °F 88% 30.15 in 7.0 mi WNW 8.1 mph - N/A   Light Drizzle
12:55 PM 66.4 °F 62.8 °F 88% 30.16 in 5.0 mi WNW 6.9 mph - 0.01 in Rain Light Rain
1:15 PM 65.1 °F 61.7 °F 89% 30.16 in 5.0 mi West 10.4 mph - 0.04 in Rain Rain
1:35 PM 65.5 °F 62.4 °F 90% 30.15 in 7.0 mi West 8.1 mph - 0.05 in Rain Light Rain
1:55 PM 65.3 °F 61.7 °F 88% 30.13 in 10.0 mi WSW 6.9 mph - 0.05 in Rain Light Rain
2:15 PM 66.4 °F 62.8 °F 88% 30.12 in 10.0 mi West 5.8 mph - N/A   Light Drizzle
2:35 PM 66.7 °F 63.0 °F 88% 30.11 in 10.0 mi West 10.4 mph - N/A   Overcast
2:55 PM 67.1 °F 61.7 °F 83% 30.10 in 10.0 mi West 8.1 mph - N/A   Scattered Clouds
3:15 PM 68.4 °F 61.2 °F 78% 30.10 in 10.0 mi West 10.4 mph 17.3 mph N/A   Clear
3:35 PM 68.9 °F 59.9 °F 73% 30.09 in 10.0 mi West 5.8 mph - N/A   Mostly Cloudy
3:55 PM 68.0 °F 59.4 °F 74% 30.10 in 10.0 mi West 5.8 mph - N/A Rain Light Rain
4:15 PM 68.0 °F 61.3 °F 79% 30.09 in 10.0 mi WSW 5.8 mph - 0.01 in Rain Light Rain
4:35 PM 67.6 °F 59.9 °F 76% 30.07 in 10.0 mi SW 4.6 mph - 0.01 in Rain Light Rain
4:55 PM 69.1 °F 59.4 °F 71% 30.07 in 10.0 mi West 5.8 mph - 0.01 in   Mostly Cloudy
5:15 PM 70.0 °F 59.0 °F 68% 30.06 in 10.0 mi West 5.8 mph - N/A   Scattered Clouds
5:35 PM 71.6 °F 59.5 °F 66% 30.06 in 10.0 mi SW 8.1 mph - N/A   Overcast
5:55 PM 72.3 °F 58.5 °F 62% 30.06 in 10.0 mi WSW 9.2 mph - N/A   Mostly Cloudy
6:15 PM 70.3 °F 57.4 °F 63% 30.06 in 10.0 mi West 4.6 mph - N/A   Scattered Clouds
6:35 PM 71.4 °F 56.5 °F 59% 30.06 in 10.0 mi West 6.9 mph - N/A   Clear
6:55 PM 70.2 °F 56.1 °F 61% 30.07 in 10.0 mi WNW 5.8 mph - N/A   Clear
7:15 PM 69.8 °F 57.4 °F 65% 30.08 in 10.0 mi NW 5.8 mph - N/A Rain Light Rain
7:35 PM 68.5 °F 58.8 °F 71% 30.09 in 10.0 mi North 5.8 mph - N/A   Overcast
7:55 PM 67.5 °F 60.1 °F 77% 30.09 in 10.0 mi NNW 3.5 mph - N/A Rain Light Rain
8:15 PM 66.0 °F 61.0 °F 84% 30.08 in 7.0 mi Calm Calm - 0.02 in Rain Light Rain
8:35 PM 64.9 °F 62.6 °F 92% 30.09 in 10.0 mi Calm Calm - 0.02 in   Overcast
8:55 PM 64.4 °F 62.4 °F 93% 30.10 in 10.0 mi Calm Calm - 0.02 in   Overcast
9:15 PM 64.2 °F 62.8 °F 95% 30.11 in 7.0 mi Calm Calm - 0.01 in   Drizzle
9:35 PM 64.4 °F 62.4 °F 93% 30.12 in 10.0 mi NW 3.5 mph - 0.02 in Rain Light Rain
9:55 PM 64.0 °F 61.9 °F 93% 30.11 in 7.0 mi West 6.9 mph - 0.04 in Rain Rain
10:15 PM 63.5 °F 60.4 °F 90% 30.11 in 10.0 mi West 6.9 mph - 0.02 in Rain Light Rain
10:35 PM 62.6 °F 59.2 °F 89% 30.12 in 10.0 mi West 3.5 mph - 0.02 in   Scattered Clouds
10:55 PM 61.2 °F 59.4 °F 94% 30.12 in 10.0 mi Calm Calm - 0.02 in   Clear
11:15 PM 60.6 °F 59.4 °F 96% 30.12 in 10.0 mi Calm Calm - N/A   Clear
11:35 PM 60.8 °F 59.9 °F 97% 30.12 in 10.0 mi Calm Calm - N/A   Clear
11:55 PM 59.9 °F 59.2 °F 97% 30.12 in 3.0 mi Calm Calm - N/A   Clear